This is the latest recevied weather packets stored in our database for station/object YF9UAG-17. If no packets are shown the sender has not sent any weather packets the latest 10 day(s).
| Time | Temp. | Humidity | Pressure | Rain* | Wind** | Luminosity | Snow |
|---|---|---|---|---|---|---|---|
| 1788082678 | 32.22° C | 52% | 1030.8 hPa | - | - | - | - |
| 1788082076 | 31.67° C | 51% | 1030.7 hPa | - | - | - | - |
| 1788081474 | 30.56° C | 52% | 1030.6 hPa | - | - | - | - |
| 1788080871 | 30° C | 54% | 1030.5 hPa | - | - | - | - |
| 1788080270 | 31.11° C | 52% | 1030.5 hPa | - | - | - | - |
| 1788079668 | 31.11° C | 52% | 1030.3 hPa | - | - | - | - |
| 1788079064 | 31.11° C | 51% | 1030.3 hPa | - | - | - | - |
| 1788078462 | 30.56° C | 51% | 1030.1 hPa | - | - | - | - |
| 1788077860 | 31.11° C | 49% | 1030.1 hPa | - | - | - | - |
| 1788077257 | 30.56° C | 50% | 1030.2 hPa | - | - | - | - |
| 1788076656 | 30.56° C | 50% | 1030.2 hPa | - | - | - | - |
| 1788076052 | 30.56° C | 50% | 1030.3 hPa | - | - | - | - |
| 1788075450 | 30.56° C | 49% | 1030.4 hPa | - | - | - | - |
| 1788074847 | 30.56° C | 49% | 1030.4 hPa | - | - | - | - |
| 1788074245 | 30° C | 49% | 1030.4 hPa | - | - | - | - |
| 1788073643 | 30° C | 49% | 1030.6 hPa | - | - | - | - |
| 1788073040 | 30° C | 50% | 1030.8 hPa | - | - | - | - |
| 1788072438 | 30° C | 49% | 1030.8 hPa | - | - | - | - |
| 1788071833 | 29.44° C | 49% | 1031 hPa | - | - | - | - |
| 1788071229 | 29.44° C | 50% | 1031 hPa | - | - | - | - |
| 1788070627 | 30° C | 49% | 1031.1 hPa | - | - | - | - |
| 1788070025 | 31.67° C | 49% | 1031.3 hPa | - | - | - | - |
| 1788069421 | 30° C | 49% | 1031.4 hPa | - | - | - | - |
| 1788068819 | 28.89° C | 50% | 1031.6 hPa | - | - | - | - |
| 1788068216 | 28.89° C | 50% | 1031.7 hPa | - | - | - | - |
* Rain since midnight (hover to see other rain measurements)
** Current wind speed in m/s (hover to see current wind gust speed)